Regional Weather Roundup
Issued by NWS

Home | Current Version | Previous Version | Graphics & Text | Print | Product List | Glossary On
Versions: 1 2 3 4 5 6 7 8 9 10 11 12 13 14 15 16 17 18 19 20 21 22 23 24 25 26 27 28 29 30 31 32 33 34 35 36 37 38 39 40 41 42 43 44 45 46 47 48 49 50
000
ASUS43 KMKX 200500
RWRWI

WISCONSIN REGIONAL WEATHER ROUNDUP
NATIONAL WEATHER SERVICE MILWAUKEE/SULLIVAN WI
1200 AM CDT SUN AUG 20 2017

NOTE: "FAIR" INDICATES FEW OR NO CLOUDS BELOW 12,000 FEET WITH NO
SIGNIFICANT WEATHER AND/OR OBSTRUCTIONS TO VISIBILITY.

WIZ001-002-006>008-014>016-023>028-200600-
NORTHWEST WISCONSIN

CITY           SKY/WX    TMP DP  RH WIND       PRES   REMARKS
SUPERIOR ARPT    N/A     58  58  99 CALM      29.87S
ASHLAND        CLEAR     62  59  90 S6        29.91R
HAYWARD        CLEAR     58  56  93 CALM      29.93R FOG
SIREN          CLEAR     64  61  91 S5        29.91S
CUMBERLAND     CLEAR     61  59  94 CALM      29.93S
RICE LAKE      CLEAR     61  60  94 CALM      29.94S
CHETEK         CLEAR     62  62 100 E7        29.93S
LADYSMITH      CLEAR     62  59  92 CALM      29.96S
EAU CLAIRE     NOT AVBL
MENOMONIE      CLEAR     64  62  94 CALM      29.93S
NEW RICHMOND   CLEAR     64  61  92 CALM      29.92S
OSCEOLA        CLEAR     65  65 100 CALM      29.94R
$$

WIZ003>005-009-010-017-018-200600-
NORTH CENTRAL WISCONSIN

CITY           SKY/WX    TMP DP  RH WIND       PRES   REMARKS
MANITOWISH WTR CLEAR     58  58 100 CALM      29.95S FOG
ARBOR VITAE    CLEAR     61  59  92 CALM      29.96R
WOODRUFF       CLEAR     61  59  92 CALM      29.96R
RHINELANDER    CLEAR     60  59  96 CALM      29.97S
EAGLE RIVER    CLEAR     59  58  97 SW3       29.96R
LAND O LAKES   CLEAR     55  55 100 CALM      29.97S FOG
PHILLIPS       CLEAR     62  61  96 CALM      29.95S
TOMAHAWK         N/A     55  54  96 CALM      29.97R
MEDFORD        CLEAR     58  57  94 S3        29.96S
MERRILL        CLEAR     55  55 100 CALM      29.97R
$$

WIZ029-030-035-036-043>047-200600-
CENTRAL WISCONSIN

CITY           SKY/WX    TMP DP  RH WIND       PRES   REMARKS
WAUSAU         CLEAR     64  60  87 CALM      29.95S
MOSINEE        CLEAR     59  59 100 CALM      29.98R
MARSHFIELD     CLEAR     61  58  90 S5        29.96S
STEVENS POINT  CLEAR     57  57 100 CALM      29.97S
WAUPACA        CLEAR     63  59  88 CALM      29.96S
WAUTOMA        CLEAR     59  58  96 CALM      29.98R
WISC RAPIDS    CLEAR     58  58 100 CALM      29.98R
CAMP DOUGLAS   CLEAR     56  56 100 CALM      29.96S
$$

WIZ011>013-019>022-031-037>040-048>050-200600-
NORTHEAST WISCONSIN

CITY           SKY/WX    TMP DP  RH WIND       PRES   REMARKS
ANTIGO         CLEAR     58  56  95 CALM      29.98R
SHAWANO        CLEAR     65  61  87 CALM      29.95R
OCONTO         CLEAR     60  59  97 CALM      29.93S
STURGEON BAY   CLEAR     67  61  81 SW6       29.95R
GREEN BAY      CLEAR     60  60 100 CALM      29.95R
MANITOWOC      CLEAR     67  61  81 W3        29.97R
APPLETON       CLEAR     66  55  68 SW7       29.95R
CLINTONVILLE   CLEAR     61  59  94 CALM      29.95R
OSHKOSH        CLEAR     66  60  81 SW3       29.96R
$$

WIZ032>034-041-042-053>061-200600-
SOUTHWEST WISCONSIN

CITY           SKY/WX    TMP DP  RH WIND       PRES   REMARKS
LA CROSSE      CLEAR     67  62  84 SE6       29.94S
SPARTA         CLEAR     56  56  99 CALM      29.96S
VIROQUA        CLEAR     65  60  85 CALM      29.97S
BOSCOBEL       FOG       60  59  96 CALM      29.97S VSB 1/2
PRAIRIE DU CHI CLEAR     64  61  92 CALM      29.96S
PLATTEVILLE    CLEAR     66  62  89 SE5       29.99R
$$

WIZ056-057-062-063-064-067-068-200600-
SOUTH CENTRAL WISCONSIN

CITY           SKY/WX    TMP DP  RH WIND       PRES   REMARKS
REEDSBURG      CLEAR     60  60 100 CALM      29.97S
BARABOO/DELLS  CLEAR     62  59  90 S3        29.97S
LONE ROCK      CLEAR     61  61 100 CALM      29.97S
MINERAL POINT  CLEAR     66  63  88 SE3       29.99S
MADISON        CLEAR     64  61  90 CALM      29.98R
MIDDLETON      CLEAR     62  62 100 CALM      29.99R
WATERTOWN      CLEAR     60  60 100 CALM      29.98S
MONROE         CLEAR     68  61  77 S6        29.99R
JANESVILLE     CLEAR     63  63 100 CALM      29.98R
$$

WIZ051-052-058>065-066-070>072-200600-
SOUTHEAST WISCONSIN

CITY           SKY/WX    TMP DP  RH WIND       PRES   REMARKS
MILWAUKEE      CLEAR     69  62  78 S6        29.99R
WAUKESHA       CLEAR     61  59  94 CALM      30.00S
MILWAUKEE/TIMM CLEAR     64  57  77 CALM      29.99S
RACINE         CLEAR     65  61  87 CALM      30.01R
KENOSHA        CLEAR     65  57  75 S3        30.00R
FOND DU LAC    CLEAR     64  60  87 S3        29.97R
SHEBOYGAN      CLEAR     63  62  97 W6        29.97R
WEST BEND      CLEAR     63  61  94 CALM      29.99R
JUNEAU         CLEAR     64  61  88 CALM      30.00R
$$

LSZ147-162-200600-
LAKE SUPERIOR

STATION/POSITION TIME  TEMP    WIND        PRES    WAVE
                       AIR SEA DIR/SP/G            HT/PER
                 (UTC) (F)     (DEG/KT/KT) (MB)    (FT/S)
W MID LAKE BUOY  0350   65 60  220/ 12/ 12 1010.6R   1/ 3
DEVILS ISLAND    0400   70     210/ 13/ 15 1011.3R
SAXON HARBOR     0430   66     180/  4/  8 1011.9R
$$

LMZ867-665-643>646-200600-
LAKE MICHIGAN

STATION/POSITION TIME  TEMP    WIND        PRES    WAVE
                       AIR SEA DIR/SP/G            HT/PER
                 (UTC) (F)     (DEG/KT/KT) (MB)    (FT/S)
S GREEN BAY BUOY 0430   72 71  220/  6/  8 1013.6R
N MID LAKE BUOY  0350   69 67  230/ 10/ 12 1012.9R   2/ 4
NORTHPORT PIER   0440   72     270/  4/ 10 1013.2R
KEWAUNEE LAKESHO 0430   69     300/  3/  5 1013.2R
SHEBOYGAN LAKESH 0400   72     240/  8/  9 1014.1R
PORT WASHINGTON  0430   70     260/  5/  6 1015.6S
ATWATER BUOY     0339   71 70  200/  6/  6 1015.1R
MILWAUKEE LAKESH 0430   71     190/  7/  7   N/A
S MID LAKE BUOY  0350   72 71  190/  6/  8 1015.3R   1
KENOSHA   LAKESH 0400   71     200/  5/  7 1015.2
$$

TC  - TEMPERATURE IN CELSIUS
VSB - VISIBILITY IN STATUTE MILES
WCI - WIND CHILL INDEX
HX  - HEAT INDEX




USA.gov is the U.S. government's official web portal to all federal, state and local government web resources and services.